• In Russia
  • List of Countries
  • For 7 days
  • Water Temperature
  • Satellite Maps
  • Weather Map
  • Weather Widgets
  • user-avatar
    Login

    Hourly Weather Cardiff

    Today, 24 September, Monday

    Time Temperature Precipitation Wind Pressure Humidity
    00:00 +7°C° 0 mm 3 mps 773 mmHg 84%
    01:00 +7°C° 0 mm 3 mps 774 mmHg 85%
    02:00 +7°C° 0 mm 3 mps 774 mmHg 86%
    03:00 +7°C° 0 mm 3 mps 774 mmHg 87%
    04:00 +6°C° 0 mm 2 mps 775 mmHg 88%
    05:00 +6°C° 0 mm 2 mps 775 mmHg 88%
    06:00 +6°C° 0 mm 2 mps 775 mmHg 89%
    07:00 +8°C° 0 mm 2 mps 776 mmHg 83%
    08:00 +10°C° 0 mm 2 mps 776 mmHg 78%
    09:00 +12°C° 0 mm 2 mps 776 mmHg 72%
    10:00 +13°C° 0 mm 2 mps 776 mmHg 68%
    11:00 +14°C° 0 mm 2 mps 777 mmHg 63%
    12:00 +15°C° 0 mm 2 mps 777 mmHg 58%
    13:00 +15°C° 0 mm 2 mps 777 mmHg 58%
    14:00 +15°C° 0 mm 2 mps 776 mmHg 57%
    15:00 +15°C° 0 mm 2 mps 776 mmHg 57%
    16:00 +14°C° 0 mm 2 mps 776 mmHg 62%
    17:00 +12°C° 0 mm 2 mps 776 mmHg 68%
    18:00 +11°C° 0 mm 1 mps 776 mmHg 74%
    19:00 +10°C° 0 mm 1 mps 776 mmHg 76%
    20:00 +10°C° 0 mm 1 mps 776 mmHg 79%
    21:00 +9°C° 0 mm 1 mps 777 mmHg 82%
    22:00 +8°C° 0 mm 1 mps 777 mmHg 83%
    23:00 +8°C° 0 mm 1 mps 776 mmHg 84%

    Tomorrow, 25 September, Tuesday

    Time Temperature Precipitation Wind Pressure Humidity
    00:00 +8°C° 0 mm 1 mps 776 mmHg 85%
    01:00 +8°C° 0 mm 1 mps 776 mmHg 85%
    02:00 +7°C° 0 mm 1 mps 776 mmHg 86%
    03:00 +7°C° 0 mm 1 mps 776 mmHg 86%
    04:00 +7°C° 0 mm 1 mps 776 mmHg 86%
    05:00 +6°C° 0 mm 2 mps 776 mmHg 85%
    06:00 +6°C° 0 mm 2 mps 776 mmHg 85%
    07:00 +8°C° 0 mm 2 mps 776 mmHg 79%
    08:00 +10°C° 0 mm 2 mps 776 mmHg 74%
    09:00 +13°C° 0 mm 2 mps 776 mmHg 68%
    10:00 +13°C° 0 mm 3 mps 775 mmHg 66%
    11:00 +14°C° 0 mm 3 mps 775 mmHg 63%
    12:00 +15°C° 0 mm 4 mps 775 mmHg 61%
    13:00 +15°C° 0 mm 4 mps 775 mmHg 62%
    14:00 +17°C° 0 mm 4 mps 774 mmHg 63%
    15:00 +17°C° 0 mm 4 mps 774 mmHg 64%
    16:00 +14°C° 0 mm 4 mps 774 mmHg 70%
    17:00 +13°C° 0 mm 4 mps 773 mmHg 76%
    18:00 +12°C° 0 mm 3 mps 773 mmHg 81%
    19:00 +11°C° 0 mm 3 mps 774 mmHg 83%
    20:00 +11°C° 0 mm 3 mps 774 mmHg 84%
    21:00 +10°C° 0 mm 3 mps 774 mmHg 86%
    22:00 +10°C° 0 mm 3 mps 774 mmHg 86%
    23:00 +9°C° 0 mm 3 mps 774 mmHg 86%

    Day after tomorrow, 26 September, Wednesday

    Time Temperature Precipitation Wind Pressure Humidity
    00:00 +9°C° 0 mm 3 mps 773 mmHg 86%
    01:00 +9°C° 0 mm 3 mps 773 mmHg 86%
    02:00 +9°C° 0 mm 2 mps 773 mmHg 85%
    03:00 +9°C° 0 mm 2 mps 773 mmHg 85%
    04:00 +9°C° 0 mm 2 mps 773 mmHg 85%
    05:00 +9°C° 0 mm 2 mps 772 mmHg 85%
    06:00 +9°C° 0 mm 2 mps 772 mmHg 85%
    07:00 +12°C° 0 mm 2 mps 772 mmHg 80%
    08:00 +13°C° 0 mm 2 mps 773 mmHg 74%
    09:00 +15°C° 0 mm 2 mps 773 mmHg 68%
    10:00 +16°C° 0 mm 2 mps 773 mmHg 64%
    11:00 +18°C° 0 mm 2 mps 773 mmHg 59%
    12:00 +19°C° 0 mm 2 mps 773 mmHg 54%
    13:00 +19°C° 0 mm 2 mps 772 mmHg 54%
    14:00 +19°C° 0 mm 2 mps 772 mmHg 54%
    15:00 +20°C° 0 mm 2 mps 772 mmHg 55%
    16:00 +19°C° 0 mm 1 mps 772 mmHg 61%
    17:00 +16°C° 0 mm 1 mps 772 mmHg 66%
    18:00 +15°C° 0 mm 1 mps 772 mmHg 72%
    19:00 +14°C° 0 mm 1 mps 772 mmHg 73%
    20:00 +13°C° 0 mm 1 mps 772 mmHg 74%
    21:00 +12°C° 0 mm 1 mps 772 mmHg 75%
    22:00 +12°C° 0 mm 1 mps 772 mmHg 75%
    23:00 +12°C° 0 mm 1 mps 771 mmHg 75%

    27 September, Thursday

    Time Temperature Precipitation Wind Pressure Humidity
    00:00 +12°C° 0 mm 1 mps 771 mmHg 74%
    01:00 +11°C° 0 mm 1 mps 771 mmHg 76%
    02:00 +11°C° 0 mm 1 mps 771 mmHg 77%
    03:00 +11°C° 0 mm 1 mps 770 mmHg 78%
    04:00 +11°C° 0 mm 1 mps 770 mmHg 78%
    05:00 +11°C° 0 mm 1 mps 770 mmHg 79%
    06:00 +11°C° 0 mm 1 mps 769 mmHg 79%
    07:00 +12°C° 0 mm 2 mps 769 mmHg 75%
    08:00 +14°C° 0 mm 2 mps 769 mmHg 71%
    09:00 +16°C° 0 mm 2 mps 769 mmHg 67%
    10:00 +18°C° 0 mm 2 mps 769 mmHg 64%
    11:00 +19°C° 0 mm 2 mps 769 mmHg 61%
    12:00 +21°C° 0 mm 3 mps 768 mmHg 58%
    13:00 +21°C° 0 mm 2 mps 768 mmHg 58%
    14:00 +21°C° 0 mm 2 mps 767 mmHg 59%
    15:00 +21°C° 0 mm 2 mps 767 mmHg 60%
    16:00 +20°C° 0 mm 2 mps 767 mmHg 67%
    17:00 +18°C° 0 mm 2 mps 767 mmHg 74%
    18:00 +16°C° 0 mm 1 mps 767 mmHg 81%
    19:00 +15°C° 0 mm 1 mps 767 mmHg 83%
    20:00 +15°C° 0 mm 1 mps 767 mmHg 84%
    21:00 +14°C° 0 mm 1 mps 767 mmHg 85%
    22:00 +14°C° 0 mm 1 mps 767 mmHg 85%
    23:00 +13°C° 0 mm 2 mps 767 mmHg 85%

    28 September, Friday

    Time Temperature Precipitation Wind Pressure Humidity
    00:00 +13°C° 0 mm 2 mps 767 mmHg 86%
    01:00 +12°C° 0 mm 2 mps 767 mmHg 85%
    02:00 +11°C° 0 mm 3 mps 767 mmHg 85%
    03:00 +10°C° 0 mm 3 mps 766 mmHg 84%
    04:00 +10°C° 0 mm 3 mps 767 mmHg 85%
    05:00 +10°C° 0 mm 3 mps 767 mmHg 86%
    06:00 +8°C° 0 mm 4 mps 767 mmHg 87%
    07:00 +11°C° 0 mm 4 mps 768 mmHg 85%
    08:00 +12°C° 0 mm 5 mps 768 mmHg 84%
    09:00 +14°C° 0 mm 5 mps 769 mmHg 82%
    10:00 +15°C° 0 mm 5 mps 769 mmHg 80%
    11:00 +15°C° 0 mm 6 mps 769 mmHg 77%
    12:00 +16°C° 0 mm 6 mps 770 mmHg 74%
    13:00 +16°C° 0 mm 6 mps 770 mmHg 73%
    14:00 +16°C° 0 mm 6 mps 770 mmHg 72%
    15:00 +16°C° 0 mm 6 mps 770 mmHg 71%
    16:00 +15°C° 0 mm 6 mps 770 mmHg 73%
    17:00 +14°C° 0 mm 5 mps 770 mmHg 75%
    18:00 +12°C° 0 mm 5 mps 770 mmHg 78%
    19:00 +12°C° 0 mm 5 mps 771 mmHg 78%
    20:00 +10°C° 0 mm 5 mps 771 mmHg 79%
    21:00 +9°C° 0 mm 5 mps 772 mmHg 79%
    22:00 +8°C° 0 mm 5 mps 772 mmHg 81%
    23:00 +8°C° 0 mm 5 mps 772 mmHg 82%

    29 September, Saturday

    Time Temperature Precipitation Wind Pressure Humidity
    00:00 +7°C° 0 mm 5 mps 771 mmHg 84%
    01:00 +7°C° 0 mm 5 mps 771 mmHg 85%
    02:00 +6°C° 0 mm 5 mps 771 mmHg 87%
    03:00 +6°C° 0 mm 4 mps 771 mmHg 89%
    04:00 +6°C° 0 mm 4 mps 771 mmHg 90%
    05:00 +6°C° 0 mm 4 mps 771 mmHg 91%
    06:00 +6°C° 0 mm 4 mps 771 mmHg 92%
    07:00 +7°C° 0 mm 4 mps 771 mmHg 87%
    08:00 +9°C° 0 mm 5 mps 771 mmHg 82%
    09:00 +10°C° 0 mm 5 mps 771 mmHg 77%
    10:00 +13°C° 0 mm 5 mps 770 mmHg 73%
    11:00 +14°C° 0 mm 5 mps 770 mmHg 69%
    12:00 +15°C° 0 mm 5 mps 770 mmHg 65%
    13:00 +15°C° 0 mm 4 mps 769 mmHg 64%
    14:00 +15°C° 0 mm 4 mps 769 mmHg 63%
    15:00 +17°C° 0 mm 4 mps 768 mmHg 63%
    16:00 +14°C° 0 mm 4 mps 768 mmHg 68%
    17:00 +13°C° 0 mm 3 mps 768 mmHg 73%
    18:00 +11°C° 0 mm 3 mps 768 mmHg 78%
    19:00 +11°C° 0 mm 3 mps 768 mmHg 80%
    20:00 +10°C° 0 mm 3 mps 768 mmHg 82%
    21:00 +9°C° 0 mm 2 mps 768 mmHg 85%
    22:00 +8°C° 0 mm 2 mps 768 mmHg 85%
    23:00 +8°C° 0 mm 2 mps 768 mmHg 86%
    Show more